Weather History for Spokane, WA

Change the Weather History Date:

Thursday, February 2, 2012

  Actual Average Record
Temperature  
Mean Temperature 32 °F 32 °F  
Max Temperature 36 °F 37 °F 56 °F (1962)
Min Temperature 27 °F 26 °F -24 °F (1996)
Degree Days  
Heating Degree Days 33 34  
Month to date heating degree days 65 68  
Since 1 July heating degree days 3814 4001  
Cooling Degree Days 0 0  
Month to date cooling degree days 0 0  
Year to date cooling degree days 0 0  
Moisture  
Dew Point 28 °F    
Average Humidity 91    
Maximum Humidity 100    
Minimum Humidity 82    
Precipitation  
Precipitation 0.00 in 0.05 in 0.55 in (1881)
Month to date precipitation 0.28 0.09  
Year to date precipitation 2.09 1.88  
Snow  
Snow 0.00 in 0.30 in 5.00 in (1938)
Month to date snowfall T 0.6  
Since 1 July snowfall 20.8 34.1  
Snow Depth 0.00 in    
Sea Level Pressure  
Sea Level Pressure 30.41 in    
Wind  
Wind Speed 4 mph (East)    
Max Wind Speed 9 mph    
Max Gust Speed 10 mph    
Visibility 4 miles    
Events Fog    
T = Trace of Precipitation, MM = Missing Value Source: NWS Daily Summary

Daily Weather History Graph

Daily Weather History Graph

Search for Another Location

Airport:

Trip Planner

Search our weather history database for the weather conditions in past years. The results will help you decide how hot, cold, wet, or windy it might be!

Date:

Astronomy

Feb. 02, 2012 Rise Set
Actual Time 7:15 AM PST 4:52 PM PST
Civil Twilight 6:42 AM PST 5:25 PM PST
Nautical Twilight 6:06 AM PST 6:02 PM PST
Astronomical Twilight 5:30 AM PST 6:38 PM PST
Moon 11:58 AM PST (2/2) 3:11 AM PST (2/2)
Length of Visible Light 10h 42m
Length of Day
9h 36m
Waxing Gibbous, 74% of the Moon is Illuminated
Feb 2
Waxing Gibbous
Feb 7
Full
Feb 14
Last Quarter
Feb 21
New
Feb 29
First Quarter

Hourly Weather History & Observations

Time (PST) Temp. Windchill Dew Point Humidity Pressure Visibility Wind Dir Wind Speed Gust Speed Precip Events Conditions
12:20 AM 28.4 °F 22.2 °F 28.4 °F 100% 30.28 in 0.2 mi South 5.8 mph - N/A Fog Light Freezing Fog
12:34 AM 28.4 °F 23.3 °F 28.4 °F 100% 30.28 in 0.5 mi South 4.6 mph - N/A   Partly Cloudy
12:37 AM 28.4 °F 23.3 °F 28.4 °F 100% 30.28 in 1.0 mi South 4.6 mph - N/A   Partly Cloudy
12:46 AM 28.4 °F 24.6 °F 26.6 °F 93% 30.29 in 3.0 mi SSE 3.5 mph - N/A   Partly Cloudy
12:53 AM 28.9 °F 23.9 °F 28.0 °F 96% 30.36 in 3.0 mi SE 4.6 mph - N/A   Partly Cloudy
1:02 AM 28.4 °F 23.3 °F 28.4 °F 100% 30.29 in 1.0 mi SE 4.6 mph - N/A   Partly Cloudy
1:14 AM 28.4 °F 23.3 °F 28.4 °F 100% 30.30 in 0.5 mi SE 4.6 mph - N/A Fog Light Freezing Fog
1:27 AM 28.4 °F 23.3 °F 28.4 °F 100% 30.30 in 0.2 mi SSE 4.6 mph - N/A Fog Light Freezing Fog
1:53 AM 28.0 °F 21.7 °F 27.0 °F 96% 30.38 in 0.2 mi SSE 5.8 mph - N/A Fog Light Freezing Fog
2:53 AM 28.9 °F 22.8 °F 28.0 °F 96% 30.39 in 0.2 mi SSE 5.8 mph - N/A Fog Light Freezing Fog
3:53 AM 28.9 °F 22.8 °F 28.0 °F 96% 30.41 in 0.2 mi SSE 5.8 mph - N/A Fog Light Freezing Fog
4:53 AM 28.9 °F - 28.0 °F 96% 30.43 in 0.2 mi Calm Calm - N/A Fog Light Freezing Fog
5:53 AM 30.0 °F 26.5 °F 28.0 °F 92% 30.45 in 0.2 mi SSE 3.5 mph - N/A Fog Light Freezing Fog
6:53 AM 28.9 °F 25.2 °F 28.0 °F 96% 30.46 in 0.2 mi SSE 3.5 mph - N/A   Mist
7:15 AM 30.2 °F 26.7 °F 28.4 °F 93% 30.40 in 0.8 mi SSE 3.5 mph - N/A   Overcast
7:26 AM 30.2 °F 26.7 °F 28.4 °F 93% 30.40 in 1.5 mi SE 3.5 mph - N/A   Overcast
7:47 AM 30.2 °F - 28.4 °F 93% 30.41 in 2.5 mi Calm Calm - N/A   Overcast
7:53 AM 30.9 °F - 28.9 °F 92% 30.48 in 2.5 mi Calm Calm - N/A   Overcast
8:04 AM 30.2 °F - 28.4 °F 93% 30.42 in 4.0 mi Calm Calm - N/A   Overcast
8:53 AM 30.9 °F - 28.9 °F 92% 30.50 in 6.0 mi Calm Calm - N/A   Overcast
9:07 AM 30.2 °F - 28.4 °F 93% 30.43 in 6.0 mi Calm Calm - N/A   Overcast
9:29 AM 30.2 °F - 28.4 °F 93% 30.43 in 6.0 mi Calm Calm - N/A   Overcast
9:53 AM 30.0 °F 26.5 °F 28.9 °F 96% 30.51 in 9.0 mi SSE 3.5 mph - N/A   Overcast
10:53 AM 30.9 °F 26.2 °F 28.9 °F 92% 30.51 in 10.0 mi East 4.6 mph - N/A   Overcast
11:53 AM 32.0 °F 27.5 °F 30.0 °F 92% 30.51 in 10.0 mi NNW 4.6 mph - N/A   Overcast
12:53 PM 33.1 °F 28.7 °F 30.0 °F 89% 30.49 in 10.0 mi NNE 4.6 mph - N/A   Overcast
1:26 PM 33.8 °F 30.8 °F 30.2 °F 87% 30.42 in 10.0 mi NNE 3.5 mph - N/A   Overcast
1:53 PM 34.0 °F 28.8 °F 30.9 °F 89% 30.48 in 10.0 mi North 5.8 mph - N/A   Overcast
2:53 PM 35.1 °F 30.1 °F 30.0 °F 82% 30.47 in 10.0 mi NNE 5.8 mph - N/A   Mostly Cloudy
3:53 PM 35.1 °F 29.3 °F 30.0 °F 82% 30.47 in 10.0 mi NNE 6.9 mph - N/A   Mostly Cloudy
4:53 PM 33.1 °F 27.7 °F 28.9 °F 85% 30.48 in 10.0 mi NNE 5.8 mph - N/A   Scattered Clouds
5:53 PM 30.9 °F 26.2 °F 28.0 °F 89% 30.48 in 10.0 mi NNE 4.6 mph - N/A   Scattered Clouds
6:53 PM 30.9 °F 26.2 °F 28.0 °F 89% 30.48 in 10.0 mi NE 4.6 mph - N/A   Partly Cloudy
7:53 PM 30.0 °F 25.2 °F 28.0 °F 92% 30.48 in 7.0 mi NNE 4.6 mph - N/A   Partly Cloudy
8:53 PM 30.0 °F 26.5 °F 28.0 °F 92% 30.47 in 5.0 mi NE 3.5 mph - N/A   Clear
9:53 PM 28.0 °F - 27.0 °F 96% 30.47 in 7.0 mi Calm Calm - N/A   Clear
10:53 PM 28.0 °F - 26.1 °F 92% 30.46 in 7.0 mi Calm Calm - N/A   Clear
10:59 PM 28.4 °F - 26.6 °F 93% 30.39 in 2.0 mi Calm Calm - N/A   Partly Cloudy
11:02 PM 28.4 °F 24.6 °F 26.6 °F 93% 30.39 in 3.0 mi ENE 3.5 mph - N/A   Scattered Clouds
11:11 PM 26.6 °F - 26.6 °F 100% 30.39 in 0.8 mi Calm Calm - N/A   Scattered Clouds
11:31 PM 26.6 °F 21.2 °F 26.6 °F 100% 30.38 in 0.8 mi ENE 4.6 mph - N/A   Mostly Cloudy
11:44 PM 28.4 °F 23.3 °F 26.6 °F 93% 30.38 in 0.2 mi NE 4.6 mph - N/A Fog Light Freezing Fog
11:53 PM 28.0 °F 24.2 °F 27.0 °F 96% 30.46 in 0.1 mi NE 3.5 mph - N/A Fog Light Freezing Fog